Theta_e
320 319 319 319 319 319 318 317 316 316 317 316 317 317 318 319 318 320 320 320 320 320 320 322 323 323 324 325 325 324 323 323 323 323 322 322 321 320 319 319 319 319
320 319 316 318 318 317 318 318 317 317 317 317 317 317 317 316 317 318 319 319 319 319 320 321 322 322 323 323 324 324 323 323 323 322 323 322 321 321 320 320 320 320
319 319 319 318 319 318 318 316 317 317 318 317 317 316 316 315 316 316 318 318 318 318 319 321 322 321 322 322 322 322 322 322 322 323 321 321 320 321 321 321 321 319
318 319 319 319 319 318 316 315 315 316 315 315 315 315 316 315 315 315 316 313 318 319 320 321 321 321 321 322 322 322 322 322 322 321 319 319 319 320 320 319 318 318
317 317 318 318 317 317 315 315 316 315 314 315 313 312 312 313 313 314 314 314 317 318 319 320 320 321 321 321 321 320 320 320 319 319 319 318 318 317 317 315 314 314
313 315 315 316 316 315 315 315 316 314 313 312 313 311 313 313 312 312 312 313 313 315 316 317 318 318 319 319 319 319 319 318 317 317 316 315 313 311 313 313 312 310
312 311 312 314 314 313 314 314 312 310 312 313 309 312 310 310 310 311 312 312 313 313 314 315 316 316 317 317 316 315 315 315 315 312 312 312 311 311 307 307 307 308
310 310 312 311 312 312 312 312 311 310 310 307 309 311 308 309 309 312 312 313 313 314 313 313 314 315 313 313 313 312 312 313 312 309 309 309 305 307 307 305 304 305
306 307 308 308 310 310 310 310 309 307 306 308 307 304 301 305 308 308 309 309 310 310 311 310 312 311 309 309 310 310 310 308 307 307 307 307 306 306 305 303 302 302
302 302 303 304 306 307 307 307 307 306 302 303 303 301 302 300 302 305 304 305 306 306 306 307 306 305 304 304 309 306 306 307 304 303 304 304 304 303 303 302 303 302
297 298 301 301 303 303 304 303 301 299 297 301 299 300 302 299 297 299 301 303 305 306 305 304 304 304 304 302 302 300 303 302 300 300 299 300 300 301 299 300 300 300
295 295 298 300 301 301 302 300 298 298 297 297 301 305 299 299 301 297 300 301 302 303 303 302 300 300 301 302 300 298 297 297 297 297 297 298 297 297 297 298 298 298
294 293 296 298 299 300 298 297 297 297 298 299 297 302 301 299 296 298 294 298 297 296 298 298 298 297 298 298 297 296 297 296 295 294 295 294 294 295 295 295 295 295
294 294 295 296 296 297 297 297 296 296 297 295 292 298 298 299 298 298 293 293 295 296 296 295 296 295 294 293 294 294 294 294 294 294 293 291 291 291 291 291 291 292
294 293 293 293 293 295 295 296 296 295 293 292 291 292 293 292 294 294 292 292 291 291 292 291 294 294 293 293 293 293 294 294 293 292 291 291 290 289 289 289 289 290
293 293 293 293 294 295 296 295 294 293 292 292 291 291 291 290 290 291 292 293 292 290 291 291 292 292 290 292 293 294 292 293 292 290 290 290 289 289 289 289 289 289
293 294 294 295 295 295 293 293 293 291 291 291 290 290 291 290 290 292 291 290 292 291 290 290 291 293 290 294 294 294 292 292 292 291 289 288 288 288 288 288 288 288
294 294 294 294 293 294 293 292 291 290 291 290 290 289 289 289 290 292 292 290 290 290 291 290 289 290 293 294 294 294 293 292 291 290 289 288 288 287 287 287 287 288
294 294 293 293 293 292 291 290 290 290 290 290 290 289 288 289 290 290 290 289 290 290 290 288 288 290 292 293 293 294 294 291 290 289 289 288 288 287 287 287 287 287
294 293 293 293 291 291 290 290 290 290 290 290 289 288 289 289 288 289 288 288 289 290 289 288 289 290 292 292 292 293 294 292 289 289 289 288 288 288 288 287 287 287
294 293 293 292 291 290 290 290 290 289 289 289 289 289 289 289 288 288 289 288 288 288 289 289 289 290 291 292 292 293 294 291 289 289 289 288 288 287 287 286 286 287
293 293 292 291 291 290 290 290 289 289 289 288 288 288 288 289 288 289 288 287 288 288 288 289 288 290 291 291 292 293 293 288 288 288 287 286 286 286 286 286 286 286
293 293 292 291 290 290 290 290 289 289 289 288 288 288 288 288 288 287 288 288 287 288 289 289 287 288 290 290 291 293 289 287 286 286 285 285 284 284 284 284 284 284
293 293 292 291 290 290 290 289 289 290 289 288 289 288 288 287 287 287 287 287 287 287 289 288 287 286 289 290 291 292 288 287 286 286 285 285 284 283 283 283 282 284
292 292 291 291 290 290 290 289 289 289 289 288 289 288 288 287 287 287 286 286 287 287 286 287 287 286 289 290 290 291 287 286 286 286 285 284 283 282 281 280 279 280
292 291 291 290 290 289 289 289 289 289 288 288 288 289 288 287 287 287 287 286 286 286 286 286 286 286 286 289 290 290 289 286 286 286 285 282 281 281 279 277 276 275
Wind_Speed
12 10 12 10 11 9 8 8 7 8 8 7 8 8 9 8 7 8 9 9 9 9 9 9 8 8 8 8 9 9 8 10 10 8 9 10 10 10 9 10 10 10
13 12 10 9 8 7 8 8 8 9 9 8 8 7 7 6 7 9 9 9 9 9 8 8 8 9 9 8 8 8 8 7 9 8 9 11 10 10 10 10 11 9
10 10 11 11 11 10 9 7 8 8 8 8 8 7 6 8 8 8 8 8 8 8 8 8 8 8 9 9 8 8 8 7 7 6 9 8 6 8 9 10 10 10
11 11 11 11 10 9 7 7 8 8 6 7 8 8 8 7 7 7 7 8 8 8 8 8 8 8 8 8 8 8 8 9 9 8 8 7 7 7 8 7 8 7
11 11 9 9 8 8 6 9 10 8 8 9 6 7 7 7 7 8 7 7 7 8 7 8 7 8 8 8 8 8 7 6 5 5 6 6 6 6 7 6 6 7
8 9 9 9 9 9 9 10 10 8 8 7 9 7 8 7 7 7 7 7 7 7 7 7 7 7 7 7 6 7 7 6 5 6 6 6 6 4 4 5 6 5
9 8 9 9 8 9 10 9 7 7 8 8 5 8 7 7 7 7 7 8 8 8 8 8 7 7 6 6 7 6 5 5 6 6 7 6 6 6 5 4 5 6
9 8 9 7 8 8 9 8 7 8 8 6 8 7 6 7 7 7 7 7 8 8 7 8 7 7 6 6 6 6 6 6 6 6 5 6 4 5 6 5 4 4
7 7 7 7 8 7 8 8 7 6 6 8 7 5 5 6 7 7 7 7 7 7 7 6 7 7 6 6 7 6 7 5 5 5 6 6 6 6 5 4 3 4
6 6 6 7 8 7 8 8 7 7 5 6 5 4 6 6 6 6 6 6 6 6 6 6 6 5 5 5 6 6 6 6 5 5 5 5 4 4 4 4 5 4
6 5 7 7 8 7 9 7 6 5 5 6 5 6 7 6 6 5 5 6 7 7 7 6 6 6 5 5 5 5 5 5 4 4 4 3 3 3 4 3 3 3
6 6 8 8 9 8 8 7 6 5 6 5 7 8 6 6 6 5 6 6 6 6 6 6 5 5 5 5 5 5 4 3 3 4 4 4 3 2 2 2 3 3
7 9 8 8 8 7 5 5 6 6 7 7 6 6 7 6 4 5 4 5 4 4 5 5 4 4 4 4 4 4 4 4 3 3 3 3 3 2 1 2 2 3
8 8 7 7 5 5 6 6 5 6 6 5 5 5 5 5 5 5 4 3 4 4 4 4 4 4 3 3 3 3 3 3 4 4 4 3 2 2 2 3 2 2
6 6 4 4 5 5 5 6 6 5 5 4 4 4 3 3 4 4 4 3 2 3 3 2 3 4 4 4 4 4 4 4 4 3 2 2 1 1 1 1 2 3
6 6 6 6 6 7 6 6 6 5 5 4 4 3 3 3 3 3 4 4 4 2 1 2 3 3 4 7 5 4 3 3 3 3 3 3 3 2 1 1 2 3
6 7 6 7 7 6 6 7 6 5 5 4 4 4 4 3 3 4 4 4 4 4 3 3 3 3 5 4 4 5 4 4 4 4 4 3 3 2 2 2 2 2
7 7 7 7 6 7 7 6 5 5 5 5 5 4 4 4 5 5 4 4 3 4 4 4 4 4 5 6 6 7 6 5 4 3 3 3 3 2 2 2 2 3
7 8 7 7 8 7 6 6 5 5 5 6 6 5 4 6 5 5 5 4 5 5 5 4 4 5 6 6 6 6 7 5 3 4 4 4 3 3 3 3 4 4
8 8 8 8 7 6 6 6 6 7 6 5 5 5 6 5 4 5 5 5 5 5 5 5 5 5 6 5 5 6 7 7 5 5 5 5 4 4 3 4 4 4
9 9 9 8 7 7 7 7 7 6 7 6 6 7 6 6 6 5 6 5 5 5 5 5 4 5 5 5 5 6 8 6 5 4 4 3 3 2 3 3 3 3
10 10 9 8 8 7 8 9 8 8 8 6 5 4 4 4 4 5 6 5 5 5 5 5 3 5 5 5 6 6 7 5 5 4 4 4 3 2 2 2 2 2
11 11 10 10 9 9 10 10 9 8 6 5 6 5 5 5 5 4 5 6 6 5 6 5 4 4 5 5 5 7 6 4 4 4 4 4 3 2 2 2 2 2
11 11 11 11 10 12 12 9 7 6 6 6 7 7 6 5 5 4 4 5 6 6 6 6 4 4 5 5 6 8 6 5 4 4 4 4 3 2 1 2 2 3
9 9 10 11 12 12 10 9 9 8 5 6 5 5 5 5 5 5 5 4 4 5 6 7 5 5 7 7 7 9 7 4 5 4 5 3 3 2 2 1 1 1
9 10 10 11 11 7 7 8 6 7 8 8 6 6 6 5 5 5 7 5 5 5 5 5 6 5 5 8 8 9 8 5 4 5 5 5 3 4 3 1 0 0
Wind_Direction
212 206 215 213 221 218 210 206 202 207 210 201 207 210 207 213 201 206 213 215 218 221 219 221 220 222 223 225 223 224 225 225 224 222 222 226 230 227 227 227 227 229
212 209 212 215 222 212 213 204 205 206 212 206 211 210 209 199 208 204 211 215 218 221 221 219 220 222 226 228 229 230 228 223 229 218 225 226 225 219 226 233 233 228
210 207 210 211 216 212 210 203 205 209 212 211 209 207 205 203 209 207 212 214 217 220 220 221 221 219 222 225 227 231 231 231 233 221 219 220 219 229 234 236 235 221
212 209 211 215 214 214 202 198 211 214 209 211 208 205 205 205 205 210 211 214 217 219 219 220 222 223 221 223 223 227 225 226 226 220 222 227 234 239 243 236 226 223
209 210 211 213 212 211 196 205 214 209 209 214 206 203 203 206 206 211 211 214 217 223 221 223 223 224 224 223 222 227 228 237 234 228 234 238 235 221 226 214 222 223
210 206 205 207 209 202 207 213 216 205 208 207 210 200 210 205 208 207 207 212 214 218 222 223 224 226 225 229 228 230 229 230 232 231 235 236 240 231 226 223 225 229
204 197 205 207 208 206 211 216 210 203 206 209 197 215 200 206 205 207 207 209 211 212 216 217 217 221 222 224 231 234 229 227 239 233 231 233 226 238 225 213 213 219
207 204 206 201 206 205 209 210 206 204 205 200 211 211 190 204 206 208 207 207 209 212 213 215 213 217 217 215 222 227 232 228 234 227 231 239 226 232 232 214 215 228
205 205 196 199 204 204 208 208 208 211 202 206 208 202 194 201 206 206 207 206 209 210 210 210 212 211 212 209 216 218 224 232 221 218 221 228 225 228 228 212 209 215
205 198 190 197 203 205 207 210 208 211 194 200 197 191 197 209 207 206 201 201 203 207 206 208 210 215 214 204 207 207 214 225 219 207 208 207 208 211 216 212 225 227
205 191 195 198 206 203 211 206 205 193 182 189 180 195 202 192 204 196 191 193 197 200 202 204 203 200 204 207 208 199 198 200 196 190 191 194 199 214 219 213 221 221
202 196 203 203 205 206 206 196 186 182 182 189 183 186 186 186 177 182 176 187 195 192 186 195 195 179 185 195 192 185 184 185 184 184 187 180 180 194 213 214 220 230
200 203 201 205 204 202 185 178 177 176 172 180 191 179 175 177 177 166 185 166 185 168 169 174 175 172 182 192 189 178 178 182 189 187 182 174 170 172 177 191 201 211
207 203 204 202 193 181 177 175 165 171 176 171 168 175 178 176 171 174 179 175 171 180 186 172 165 170 176 171 165 168 167 182 180 185 178 156 135 150 181 192 180 164
197 197 190 188 183 177 175 176 173 175 169 163 168 166 156 163 162 157 151 159 148 162 160 150 164 182 171 167 171 174 171 172 171 160 144 135 149 162 168 124 93 87
190 188 185 182 184 182 180 174 175 177 174 175 178 171 169 161 157 164 163 170 175 172 147 156 179 164 172 167 165 164 164 153 141 155 161 173 171 149 93 106 115 119
184 190 182 188 186 175 173 176 178 174 178 178 176 177 190 193 188 192 191 176 174 176 186 200 196 179 167 162 167 166 162 164 165 166 167 160 154 159 169 144 119 125
189 185 189 190 180 187 181 181 171 173 181 177 172 182 193 185 202 208 201 195 193 193 197 196 198 181 168 176 182 187 182 171 157 145 152 156 157 160 164 155 143 138
189 192 193 190 194 184 178 174 181 184 189 182 189 187 169 178 192 178 189 183 178 183 193 184 181 184 188 187 180 174 172 150 148 155 153 160 156 163 179 175 159 151
193 195 199 198 186 182 176 185 189 203 192 184 177 177 177 177 171 177 176 179 182 183 178 177 174 187 184 173 167 170 169 156 159 156 156 158 168 171 173 176 177 161
196 199 202 193 185 180 182 194 197 190 186 185 184 182 178 178 174 175 183 174 173 166 162 173 183 174 168 162 166 169 163 143 140 138 140 139 142 156 171 182 169 156
197 200 200 189 184 184 190 198 195 191 187 179 174 171 170 162 180 175 170 171 166 159 156 173 179 179 160 164 164 168 145 132 139 134 126 119 112 129 170 165 155 142
199 198 197 191 186 189 200 200 192 189 183 166 171 175 170 177 178 170 167 164 164 167 168 171 172 187 174 163 161 154 135 142 134 126 123 120 129 166 159 148 129 122
202 197 196 191 188 200 200 192 181 177 182 171 177 172 181 180 164 156 163 170 168 172 178 168 174 177 173 163 159 160 154 151 147 135 130 126 131 128 113 100 89 129
200 201 200 195 198 203 189 185 186 180 162 162 169 164 172 161 164 159 161 171 178 171 175 167 161 171 168 160 165 157 148 146 145 137 132 126 121 96 27 58 22 116
195 201 205 203 204 186 181 183 164 162 170 169 167 163 160 166 167 167 167 176 171 169 175 173 160 166 163 159 162 157 150 144 144 141 144 140 136 141 122 38 357 320